User: anonymous   Login
Location: Caltech
(34.1382°N, 118.1253°W)
Time: 12:42:35
(UTC-07:00)
Language:

RS-15 - Orbit

View from above orbital plane
View from above orbital plane
View from above satellite
View from above satellite

Ground track
Ground track

The orbit data is extracted from the following two-line orbital elements,

1 23439U 94085A   15181.13433538 -.00000033  00000-0  28060-3 0  9999
2 23439 064.8182 300.5279 0154426 010.4207 349.9863 11.27562960844618
Epoch (UTC): 30 June 2015 03:13:26
Eccentricity: 0.0154426
inclination: 64.8182°
perigee height: 1892 km
apogee height: 2152 km
right ascension of ascending node: 300.5279°
argument of perigee: 10.4207°
revolutions per day: 11.27562960
mean anomaly at epoch: 349.9863°
orbit number at epoch: 84461

The dashed part of the orbit path shows where the satellite is in the earth's shadow,  

DLR